Location: Bakersfield
(35.3730°N, 119.0180°W)
Time: 03:04:34
(UTC-07:00)

Daily predictions for brighter satellites

Satellite Brightness Start Highest point End
(mag) Time Altitude Azimuth Time Altitude Azimuth Time Altitude Azimuth
Cosmos 2369 Rocket 3.7 00:09:50 28° NE 00:09:50 28° NE 00:12:32 10° NNE
NOSS 3-1 (C) 4.4 00:09:29 10° NNW 00:17:01 56° NE 00:17:48 54° ENE
Cosmos 1605 Rocket 4.5 00:26:47 57° NNE 00:26:47 57° NNE 00:31:48 10° N
CZ-2C R/B 4.4 00:27:23 10° NNE 00:29:39 24° NE 00:29:39 24° NE
Cosmos 1943 Rocket 3.8 00:56:48 28° NE 00:56:48 28° NE 00:59:32 10° NNE
SeaSat 1 4.5 01:10:09 22° NE 01:10:09 22° NE 01:13:30 10° N
Lacrosse 5 3.8 01:32:52 24° NNW 01:32:52 24° NNW 01:36:34 10° NNE
NOSS 3-1 (A) 4.3 01:28:32 10° NW 01:34:54 57° WNW 01:34:54 57° WNW
Cosmos 2369 Rocket 4.1 01:51:36 20° NW 01:51:36 20° NW 01:55:27 10° N
ATLAS 2AS CENTAUR R/B 3.0 01:49:48 10° NNW 01:57:54 72° ENE 01:58:45 67° E
Cosmos 2219 4.0 01:55:15 10° NNW 01:59:47 47° NNE 01:59:47 47° NNE
Cosmos 2233 Rocket 4.4 02:08:19 56° ENE 02:08:19 56° ENE 02:13:38 10° NNE
SL-08 R/B 4.3 02:36:30 45° NE 02:36:30 45° NE 02:40:09 10° N
Cosmos 1943 Rocket 4.0 02:38:19 20° NW 02:38:19 20° NW 02:42:10 10° N
Meteor 2-17 Rocket 4.5 02:40:28 73° NW 02:40:28 73° NW 02:46:08 10° N
ATLAS CENTAUR R/B 3.5 02:45:31 25° E 02:45:31 25° E 02:48:59 10° NE
NPP 3.8 02:39:25 10° NNE 02:44:08 69° NNE 02:44:08 69° NNE
IRAS Rocket 4.4 02:40:24 10° NNE 02:45:44 69° E 02:45:44 69° E
SeaSat 1 4.3 02:49:56 21° NW 02:49:56 21° NW 02:51:41 10° NW
BREEZE-M DEB (TANK) 4.4 02:47:39 10° NW 02:51:33 24° N 02:51:33 24° N
Resurs 1-4 Rocket 3.7 02:48:03 10° NE 02:52:18 24° E 02:53:22 23° ESE
Cosmos 44 3.8 02:50:39 10° NNW 02:55:22 59° NE 02:55:22 59° NE
SL-16 R/B 3.9 02:52:26 12° SE 02:57:26 34° ENE 03:02:51 10° N
Cosmos 2034 Rocket 4.5 02:59:27 44° SE 03:00:53 53° E 03:06:54 10° NNE
CZ-3B DEB 4.4 02:36:01 10° NW 03:01:29 48° WSW 03:04:22 43° SW
ERS-2 3.9 02:58:47 10° NNE 03:00:53 32° NNE 03:00:53 32° NNE
ADEOS 3.6 02:59:14 10° NNE 03:04:22 73° E 03:04:22 73° E
Cosmos 1707 4.3 03:02:32 10° NNE 03:05:47 33° ENE 03:05:47 33° ENE
Geosat 4.4 03:06:29 10° NNE 03:11:07 52° NW 03:11:07 52° NW
ARIANE 5 R/B 2.7 03:14:56 10° NNE 03:20:01 62° E 03:20:42 56° SE
Cosmos 1812 Rocket 4.3 03:24:44 44° NW 03:24:44 44° NW 03:28:12 10° N
OAO 1 4.3 03:24:43 79° SSW 03:24:53 81° S 03:30:22 10° E
Cosmos 1656 4.0 03:24:08 51° SSE 03:25:15 61° ESE 03:30:50 10° NNE
ERS-1 4.3 03:24:18 10° N 03:29:23 80° WNW 03:29:42 76° WSW
Spot 4 Rocket 3.9 03:26:01 10° N 03:31:10 71° WNW 03:31:32 68° WSW
Meteor 2-5 Rocket 3.7 03:28:05 10° N 03:33:58 82° W 03:35:35 51° S
SME Rocket 4.0 03:33:14 34° SSE 03:35:38 78° ENE 03:43:06 10° NNW
Cosmos 1697 Rocket 3.0 03:36:48 41° SSE 03:38:32 58° ESE 03:44:06 10° NNE
Cosmos 2082 3.6 03:33:37 10° NNW 03:39:16 90° ENE 03:42:03 31° SSE
IRS-1D 3.3 03:37:13 10° NNE 03:42:11 87° WNW 03:43:06 61° SSW
Cosmos 2298 Rocket 3.9 03:37:13 10° NNW 03:42:32 80° WSW 03:44:02 48° S
CZ-2D R/B 2.2 03:37:30 10° NNE 03:42:59 77° ESE 03:44:44 44° S
Cosmos 1980 Rocket 3.3 03:42:57 24° SSE 03:45:43 38° ESE 03:50:54 10° NE
Cosmos 1464 Rocket 4.4 03:45:50 41° WSW 03:46:57 45° W 03:52:59 10° N
Cosmos 1814 Rocket 4.0 03:46:33 55° WSW 03:47:30 66° WNW 03:52:50 10° NNE
ATLAS 2AS CENTAUR R/B 4.3 03:42:26 10° WNW 03:46:06 20° W 03:46:06 20° W
Blok-2BL 4.5 03:42:15 10° NW 03:48:21 70° WSW 03:50:24 38° S
Cosmos 2227 Rocket 2.1 03:46:16 10° NNW 03:51:53 66° WSW 03:54:06 37° S
Okean 3 Rocket 3.5 03:50:14 10° NNW 03:54:35 63° W 03:54:48 62° WSW
Cosmos 1766 3.1 03:57:00 72° SSW 03:57:23 85° W 04:01:21 10° N
Milstar 3 Cent rocket 2.7 03:57:08 39° SSW 03:58:18 43° SSE 04:06:00 10° E
Cosmos 405 Rocket 3.9 03:58:10 10° NNW 04:01:00 31° WNW 04:01:00 31° WNW
Cosmos 1092 Rocket 4.1 04:01:11 10° N 04:07:29 78° E 04:13:48 10° S
Cosmos 1758 3.9 04:05:42 27° SSE 04:07:38 53° E 04:11:34 10° NNE
GEOS 3 Rocket 3.5 04:06:06 10° SSE 04:11:18 69° WSW 04:16:29 10° NW
UNKNOWN OBJECT B 2.7 04:08:14 10° N 04:12:08 70° WNW 04:12:58 51° SW
Cosmos 2297 Rocket 2.1 04:08:12 10° NNW 04:13:46 61° WSW 04:18:51 12° S
Cosmos 1953 2.5 04:12:28 30° S 04:14:21 69° E 04:18:23 10° NNE
OAO 3 Rocket 4.2 04:15:56 27° S 04:15:56 27° S 04:18:58 10° SE
MOS 1-B 4.4 04:10:39 10° N 04:16:25 68° WNW 04:19:32 28° SSW
CZ-2D R/B 3.5 04:12:18 10° NNE 04:16:40 88° W 04:18:42 32° SSW
ISS -0.2 04:15:01 10° NNW 04:17:16 17° NNE 04:19:31 10° ENE
Cosmos 990 Rocket 3.9 04:15:31 10° NNW 04:20:47 80° WSW 04:26:02 10° SSE
Cosmos 2150 Rocket 4.5 04:16:39 10° NW 04:21:25 37° W 04:22:52 31° SW
EO 1 Del DPAF 3.5 04:20:55 42° SW 04:21:34 46° W 04:25:19 10° NNW
ATLAS CENTAUR R/B 2.7 04:21:52 26° W 04:23:47 36° NW 04:28:25 10° NNE
Centaur D-1A AC-31 4.3 04:05:04 22° SW 04:24:00 42° S 04:30:58 10° ESE
SL-16 R/B 3.8 04:22:00 10° SSE 04:26:51 30° ESE 04:31:43 10° NE
Cosmos 1378 3.3 04:24:00 10° NNW 04:27:42 52° W 04:28:58 34° SSW
Meteor 1-24 Rocket 4.1 04:22:20 10° NNW 04:27:47 47° W 04:31:34 20° SSW
Cosmos 2142 Rocket 4.4 04:25:02 17° S 04:29:56 81° W 04:36:06 10° N
Cosmos 836 Rocket 4.4 04:28:46 25° SSW 04:31:53 74° WNW 04:37:08 10° NNE
Resurs 1-4 Rocket 2.9 04:27:25 10° N 04:32:08 35° WNW 04:34:27 24° WSW
Cosmos 1805 3.1 04:30:33 26° SSW 04:32:38 77° W 04:36:34 10° N
Okean O Rocket 1.5 04:30:12 10° N 04:34:35 82° WNW 04:37:40 20° SSW
PAYLOAD B 4.3 04:30:27 10° NNE 04:36:05 82° ESE 04:41:24 11° S
Cosmos 1743 Rocket 3.6 04:36:07 10° N 04:40:28 80° E 04:44:49 10° S
Cosmos 1441 Rocket 3.6 04:36:56 10° NNW 04:40:45 46° W 04:43:16 19° SSW
SL-16 R/B 3.2 04:37:31 20° SSW 04:40:57 33° W 04:46:27 10° NW
Cosmos 1125 Rocket 3.9 04:38:57 10° NNW 04:44:08 66° ENE 04:49:17 10° SSE
Cosmos 1076 Rocket 4.2 04:41:10 10° NNW 04:45:05 34° W 04:47:20 20° SW
Aureole 1 Rocket 4.4 04:40:42 10° S 04:45:50 60° ESE 04:52:41 10° NNE
Cosmos 2279 Rocket 4.1 04:41:21 10° S 04:47:36 84° E 04:53:53 10° N
Cosmos 1733 4.3 04:45:12 10° SSE 04:48:48 43° E 04:52:24 10° NNE
CZ-4B R/B 3.2 04:43:36 10° N 04:49:10 80° WNW 04:54:35 10° SSW
Cosmos 841 Rocket 4.3 04:46:49 20° WSW 04:49:48 35° WNW 04:54:38 10° N
Aurora 2 Rocket 3.8 04:50:46 14° S 04:51:09 14° S 04:52:58 10° SE
GPS 2-04 Rocket1 2.5 04:49:21 17° W 04:52:18 85° N 04:56:01 10° E
Cosmos 1937 Rocket 4.5 04:49:28 10° NW 04:53:41 26° W 04:56:58 14° SSW
Cosmos 2227 4.5 04:51:35 10° NNW 04:57:23 76° ENE 05:03:07 10° SSE
Meteor 1-21 Rocket 4.3 04:52:18 10° NNW 04:58:12 71° W 05:04:04 10° S
ARGOS Delta rocket 3.9 04:53:09 10° N 04:58:19 78° WNW 05:03:08 10° SSW
ARIANE 5 R/B 4.4 04:55:57 10° NNW 04:58:35 14° WNW 05:01:02 11° W
Cosmos 1655 Rocket 4.0 04:52:36 10° N 04:59:02 79° W 05:05:24 10° S
CZ-3 R/B 3.5 04:37:40 16° WSW 04:59:22 50° S 05:06:28 10° E
BREEZE-M DEB (TANK) 4.0 04:58:19 12° W 05:02:18 34° NNW 05:06:14 10° NE
Cosmos 1437 3.0 05:02:06 10° NNW 05:05:20 49° W 05:08:33 10° S
Cosmos-2242 4.1 05:03:09 15° SW 05:05:47 26° WNW 05:09:26 10° NNW
ASTRO E2 3.4 05:02:59 15° WSW 05:05:53 35° SSW 05:09:36 10° SE
Cosmos 2221 3.8 05:02:39 10° SSE 05:06:39 40° E 05:10:40 10° NNE
CZ-4B R/B 3.1 05:03:57 10° N 05:07:45 47° WNW 05:11:20 10° SSW
Thor Agena Rocket 3.5 05:04:44 10° S 05:09:44 67° WSW 05:14:46 10° NNW
NOSS 3-4 (A) 4.1 05:04:40 10° NW 05:11:20 44° WSW 05:18:20 10° S
NOSS 3-4 (C) 4.1 05:04:46 10° NW 05:11:29 44° WSW 05:18:31 10° S
Okean-O 2.7 05:09:55 10° NNE 05:14:22 88° ESE 05:18:48 10° SSW
CZ-2C R/B 4.4 05:11:04 10° SSW 05:15:22 35° W 05:19:39 10° NNW
CZ-2D R/B 4.1 05:20:03 10° NW 05:22:19 13° WNW 05:24:33 10° W
Cosmos 1697 Rocket 4.4 05:19:03 10° W 05:22:53 18° NW 05:26:44 10° NNW
Cosmos 1842 Rocket 4.3 05:18:49 10° SSW 05:22:57 37° W 05:27:07 10° N
PSLV R/B 3.5 05:19:48 10° N 05:24:01 73° WNW 05:28:14 10° SSW
ADEOS Rocket 3.5 05:18:58 10° NNE 05:25:29 80° ESE 05:32:43 10° S
Cosmos 1470 3.3 05:22:43 10° SSW 05:26:25 40° W 05:30:10 10° N
Cosmos 1544 4.4 05:24:10 10° SW 05:27:10 23° WNW 05:30:10 10° NNW
SL-24 R/B - RUBIN 2 4.4 05:22:22 10° SW 05:27:53 70° WNW 05:34:10 10° NNE
Cosmos 1674 2.9 05:25:39 10° NNW 05:29:17 47° W 05:32:53 10° SSW
Cosmos 1980 Rocket 3.4 05:25:08 10° WSW 05:29:46 26° WNW 05:34:27 10° N
Cosmos 2360 Rocket 3.6 05:25:02 10° S 05:30:13 40° ESE 05:35:25 10° NE
Cosmos 1538 Rocket 4.1 05:27:27 10° SSW 05:32:42 89° WNW 05:38:02 10° NNE
Cosmos 540 Rocket 4.2 05:29:20 10° SW 05:34:04 36° WNW 05:38:50 10° N
